Weather History for Mount Pleasant, IA

Change the Weather History Date:

Wednesday, May 7, 2014

  Actual Average Record
Temperature  
Mean Temperature 76 °F -  
Max Temperature 89 °F 70 °F 89 °F (2014)
Min Temperature 64 °F 48 °F 29 °F (1967)
Cooling Degree Days 12    
Growing Degree Days 26 (Base 50)    
Moisture  
Dew Point 59 °F    
Average Humidity 58    
Maximum Humidity 83    
Minimum Humidity 29    
Precipitation  
Precipitation 0.00 in - - ()
Sea Level Pressure  
Sea Level Pressure 29.68 in    
Wind  
Wind Speed 11 mph (SSE)    
Max Wind Speed 25 mph    
Max Gust Speed 29 mph    
Visibility 10 miles    
Events Rain    
Averages and records for this station are not official NWS values.
T = Trace of Precipitation, MM = Missing Value Source: NWS Daily Summary

Daily Weather History Graph

Daily Weather History Graph

Search for Another Location

Airport:

Trip Planner

Search our weather history database for the weather conditions in past years. The results will help you decide how hot, cold, wet, or windy it might be!

Date:

Astronomy

May. 07, 2014 Rise Set
Actual Time 5:56 AM CDT 8:08 PM CDT
Civil Twilight 5:26 AM CDT 8:39 PM CDT
Nautical Twilight 4:49 AM CDT 9:17 PM CDT
Astronomical Twilight 4:08 AM CDT 9:58 PM CDT
Moon 1:11 PM CDT (5/7) 1:59 AM CDT (5/7)
Length of Visible Light 15h 13m
Length of Day
14h 12m
First Quarter, 55% of the Moon is Illuminated
May 7
First Quarter
May 14
Full
May 21
Last Quarter
May 28
New
Jun 5
First Quarter

Hourly Weather History & Observations

Time (CDT) Temp. Heat Index Dew Point Humidity Pressure Visibility Wind Dir Wind Speed Gust Speed Precip Events Conditions
12:15 AM 64.8 °F - 52.7 °F 65% 29.66 in 10.0 mi NE 6.9 mph - N/A   Clear
12:35 AM 64.6 °F - 53.4 °F 67% 29.67 in 10.0 mi ENE 5.8 mph - N/A   Clear
12:55 AM 64.4 °F - 54.0 °F 69% 29.67 in 10.0 mi East 3.5 mph - N/A   Clear
1:15 AM 66.4 °F - 56.1 °F 69% 29.66 in 10.0 mi ESE 6.9 mph - N/A   Clear
1:35 AM 67.5 °F - 57.6 °F 70% 29.66 in 10.0 mi ESE 9.2 mph - N/A   Clear
1:55 AM 67.6 °F - 57.6 °F 70% 29.65 in 10.0 mi SE 8.1 mph - N/A   Clear
2:15 AM 68.0 °F - 57.6 °F 69% 29.65 in 10.0 mi SSE 9.2 mph - N/A   Clear
2:35 AM 68.5 °F - 57.6 °F 68% 29.65 in 10.0 mi SSE 10.4 mph - N/A   Clear
2:55 AM 69.1 °F - 57.4 °F 66% 29.65 in 10.0 mi South 10.4 mph - N/A   Clear
3:15 AM 68.9 °F - 57.7 °F 68% 29.65 in 10.0 mi South 12.7 mph - N/A   Clear
3:35 AM 69.8 °F - 58.1 °F 66% 29.65 in 10.0 mi South 10.4 mph - N/A   Clear
3:55 AM 70.2 °F - 58.3 °F 66% 29.65 in 10.0 mi South 9.2 mph - N/A   Clear
4:15 AM 70.2 °F - 58.5 °F 66% 29.65 in 10.0 mi SSE 10.4 mph - N/A   Scattered Clouds
4:35 AM 70.3 °F - 58.5 °F 66% 29.66 in 10.0 mi South 13.8 mph - N/A   Scattered Clouds
4:55 AM 70.0 °F - 58.6 °F 67% 29.66 in 10.0 mi South 11.5 mph - N/A   Clear
5:15 AM 69.3 °F - 58.5 °F 68% 29.67 in 10.0 mi South 10.4 mph - N/A   Clear
5:35 AM 68.7 °F - 58.5 °F 70% 29.67 in 10.0 mi South 9.2 mph - N/A   Clear
5:55 AM 68.5 °F - 58.5 °F 70% 29.68 in 10.0 mi South 10.4 mph - N/A   Clear
6:15 AM 68.9 °F - 58.5 °F 69% 29.69 in 10.0 mi South 15.0 mph - N/A   Clear
6:35 AM 69.3 °F - 58.5 °F 68% 29.69 in 10.0 mi South 13.8 mph - N/A   Clear
6:55 AM 69.6 °F - 58.5 °F 68% 29.69 in 10.0 mi South 15.0 mph - N/A   Clear
7:15 AM 70.3 °F - 58.6 °F 66% 29.69 in 10.0 mi South 17.3 mph - N/A   Clear
7:35 AM 72.0 °F - 59.2 °F 64% 29.69 in 10.0 mi South 16.1 mph 20.7 mph N/A   Clear
7:55 AM 71.2 °F - 59.0 °F 65% 29.72 in 7.0 mi South 12.7 mph - N/A   Clear
8:15 AM 71.1 °F - 59.0 °F 66% 29.71 in 10.0 mi South 11.5 mph - N/A   Clear
8:35 AM 70.9 °F - 59.7 °F 68% 29.73 in 10.0 mi South 12.7 mph - N/A   Clear
8:55 AM 70.0 °F - 59.5 °F 69% 29.71 in 7.0 mi South 12.7 mph - N/A   Scattered Clouds
9:15 AM 68.7 °F - 60.1 °F 74% 29.73 in 7.0 mi South 9.2 mph - N/A Rain Light Rain
9:35 AM 66.7 °F - 61.3 °F 83% 29.71 in 10.0 mi SE 9.2 mph - N/A Rain Light Rain
9:55 AM 67.6 °F - 61.9 °F 82% 29.73 in 10.0 mi SSE 6.9 mph - N/A   Clear
10:15 AM 69.4 °F - 61.9 °F 77% 29.72 in 10.0 mi SSE 8.1 mph - N/A   Clear
10:35 AM 71.6 °F - 61.7 °F 71% 29.70 in 10.0 mi South 11.5 mph - N/A   Clear
10:55 AM 75.2 °F - 63.5 °F 67% 29.70 in 10.0 mi South 15.0 mph - N/A   Clear
11:15 AM 77.9 °F - 62.8 °F 60% 29.71 in 10.0 mi South 16.1 mph - N/A   Clear
11:35 AM 79.9 °F - 61.3 °F 53% 29.72 in 10.0 mi South 18.4 mph - N/A   Clear
11:55 AM 79.2 °F - 61.3 °F 54% 29.70 in 10.0 mi South 17.3 mph 24.2 mph N/A   Clear
12:15 PM 79.0 °F - 61.0 °F 54% 29.73 in 10.0 mi South 10.4 mph 20.7 mph N/A   Clear
12:35 PM 77.4 °F - 60.4 °F 56% 29.68 in 10.0 mi SE 25.3 mph 28.8 mph N/A   Mostly Cloudy
12:55 PM 73.9 °F - 61.5 °F 65% 29.71 in 10.0 mi WSW 5.8 mph 20.7 mph N/A Rain Light Rain
1:15 PM 73.6 °F - 62.1 °F 67% 29.70 in 10.0 mi South 3.5 mph - N/A   Clear
1:35 PM 76.3 °F - 62.8 °F 63% 29.69 in 10.0 mi SW 3.5 mph - N/A   Clear
1:55 PM 79.0 °F - 63.1 °F 58% 29.69 in 10.0 mi South 11.5 mph - N/A   Clear
2:15 PM 81.9 °F 83.2 °F 63.5 °F 54% 29.68 in 10.0 mi South 17.3 mph 20.7 mph N/A   Clear
2:35 PM 81.3 °F 82.3 °F 62.2 °F 52% 29.68 in 10.0 mi South 16.1 mph 21.9 mph N/A   Clear
2:55 PM 84.0 °F 84.4 °F 61.3 °F 46% 29.68 in 10.0 mi South 17.3 mph 21.9 mph N/A   Clear
3:15 PM 85.3 °F 85.2 °F 60.6 °F 43% 29.67 in 10.0 mi SSE 18.4 mph 26.5 mph N/A   Clear
3:35 PM 86.5 °F 85.9 °F 58.6 °F 39% 29.66 in 10.0 mi South 18.4 mph 27.6 mph N/A   Clear
3:55 PM 87.8 °F 86.7 °F 57.9 °F 36% 29.66 in 10.0 mi SSE 19.6 mph 25.3 mph N/A   Clear
4:15 PM 88.5 °F 87.1 °F 57.2 °F 34% 29.65 in 10.0 mi SSE 23.0 mph 28.8 mph N/A   Clear
4:35 PM 89.2 °F 87.5 °F 56.1 °F 32% 29.65 in 10.0 mi SSE 24.2 mph 27.6 mph N/A   Clear
4:55 PM 88.9 °F 86.9 °F 54.5 °F 31% 29.66 in 10.0 mi SSE 16.1 mph 26.5 mph N/A   Clear
5:15 PM 88.7 °F - 52.7 °F 29% 29.66 in 10.0 mi South 19.6 mph 27.6 mph N/A   Clear
5:35 PM 87.8 °F 85.9 °F 54.1 °F 32% 29.66 in 10.0 mi SSE 18.4 mph 26.5 mph N/A   Clear
5:55 PM 86.4 °F 84.7 °F 54.7 °F 34% 29.67 in 10.0 mi South 17.3 mph 26.5 mph N/A   Clear
6:15 PM 86.2 °F 84.7 °F 55.8 °F 35% 29.67 in 10.0 mi South 12.7 mph - N/A   Clear
6:35 PM 85.8 °F 84.5 °F 55.9 °F 36% 29.67 in 10.0 mi South 17.3 mph 20.7 mph N/A   Clear
6:55 PM 84.4 °F 83.5 °F 56.8 °F 39% 29.67 in 10.0 mi SSE 16.1 mph 20.7 mph N/A   Clear
7:15 PM 82.9 °F 82.4 °F 56.8 °F 41% 29.67 in 10.0 mi SSE 15.0 mph - N/A   Clear
7:35 PM 81.9 °F 81.7 °F 57.0 °F 43% 29.66 in 10.0 mi SSE 15.0 mph 21.9 mph N/A   Clear
7:55 PM 80.2 °F 80.6 °F 57.6 °F 46% 29.67 in 10.0 mi SSE 13.8 mph - N/A   Clear
8:15 PM 78.8 °F - 58.3 °F 49% 29.67 in 10.0 mi SSE 15.0 mph - N/A   Clear
8:35 PM 77.9 °F - 58.6 °F 51% 29.68 in 10.0 mi SSE 12.7 mph - N/A   Clear
8:55 PM 76.5 °F - 59.2 °F 55% 29.68 in 10.0 mi SSE 12.7 mph - N/A   Clear
9:15 PM 76.1 °F - 59.5 °F 56% 29.69 in 10.0 mi SSE 12.7 mph - N/A   Clear
9:35 PM 76.1 °F - 60.1 °F 57% 29.70 in 10.0 mi SSE 12.7 mph - N/A   Clear
9:55 PM 75.0 °F - 60.4 °F 60% 29.70 in 10.0 mi SSE 13.8 mph - N/A   Clear
10:15 PM 74.5 °F - 60.8 °F 62% 29.69 in 10.0 mi SSE 13.8 mph - N/A   Clear
10:35 PM 74.3 °F - 61.0 °F 63% 29.69 in 10.0 mi SSE 13.8 mph - N/A   Clear
10:55 PM 74.7 °F - 61.0 °F 62% 29.69 in 10.0 mi SSE 15.0 mph - N/A   Clear
11:15 PM 74.7 °F - 61.0 °F 62% 29.70 in 10.0 mi South 13.8 mph - N/A   Clear
11:55 PM 75.0 °F - 61.0 °F 62% 29.71 in 7.0 mi South 13.8 mph - N/A   Clear